sat.trackr.live / text

‹ back to catalog

JILIN-1 GAOFEN 03D51

NORAD 54252 · 2022-155B

PAYLOAD ACTIVE UNKNOWN

§ Identity

Operator
Country
PRC
Launch date
2022-11-16
Launch site
JSC
Launch vehicle
Mass (kg)
RCS (m²)

External: N2YO · Heavens-Above · Gunter

§ Orbital elements

Epoch: 2026-05-25T05:05:31.952832Z

Period
92.32 min
Inclination
97.6191°
Eccentricity
0.0004660
Mean motion
15.59779994 rev/d
Perigee alt
385.1 km
Apogee alt
391.4 km
Semi-major
6,766.4 km
B*
5.5251e-4
RAAN
288.3130°
Arg perigee
88.8274°
Mean anomaly
271.3516°
Rev number
19,616

§ Raw data

JILIN-1 GAOFEN 03D511 54252U 22155B   26145.21217538  .00044332  00000+0  55251-3 0  99962 54252  97.6191 288.3130 0004660  88.8274 271.3516 15.59779994196164

JSON: /api/v1/satellites/54252 · /tle

For live sub-satellite position, see the globe view (requires WebGL).

§ Visibility from observer

Set your observer location to see the next 7 days of passes ≥ 10°. The values pass through the URL so the page stays shareable.

No JS? Fill the form by hand. The geolocation button needs JavaScript.